Location: ?????? ??????
(44.3742°N, 135.2221°E)
Time: 05:04:27
(UTC+00:00)

Cosmos 2056 Rocket - Pass Details

Date: 19 May 2025
Orbit: 739 x 796 km, 74.0° (Epoch: 19 June)

Event Time Altitude Azimuth Distance (km) Brightness Sun altitude
Rises 16:02:39 0° 332° (NNW) 3,275 7.4 -23.9°
Reaches altitude 10° 16:05:10 10° 326° (NW) 2,334 6.5 -23.8°
Enters shadow 16:10:01 41° 260° (W) 1,102 4.0 -23.5°
